Weather History for Hartford, CT

Change the Weather History Date:

Sunday, May 12, 2013

  Actual Average Record
Temperature  
Mean Temperature 62 °F -  
Max Temperature 71 °F 69 °F 91 °F (1993)
Min Temperature 52 °F 47 °F 34 °F (1983)
Degree Days  
Heating Degree Days 3    
Growing Degree Days 12 (Base 50)    
Moisture  
Dew Point 50 °F    
Average Humidity 70    
Maximum Humidity 96    
Minimum Humidity 32    
Precipitation  
Precipitation 0.04 in - - ()
Sea Level Pressure  
Sea Level Pressure 29.68 in    
Wind  
Wind Speed 6 mph (West)    
Max Wind Speed 21 mph    
Max Gust Speed 32 mph    
Visibility 8 miles    
Events Rain    
Averages and records for this station are not official NWS values.
T = Trace of Precipitation, MM = Missing Value Source: NWS Daily Summary

Daily Weather History Graph

Daily Weather History Graph

Search for Another Location

Airport:

Trip Planner

Search our weather history database for the weather conditions in past years. The results will help you decide how hot, cold, wet, or windy it might be!

Date:

Astronomy

May. 12, 2013 Rise Set
Actual Time 5:33 AM EDT 8:00 PM EDT
Civil Twilight 5:02 AM EDT 8:32 PM EDT
Nautical Twilight 4:23 AM EDT 9:11 PM EDT
Astronomical Twilight 3:39 AM EDT 9:55 PM EDT
Moon 7:26 AM EDT (5/12) 10:26 PM EDT (5/12)
Length of Visible Light 15h 30m
Length of Day
14h 27m
Waxing Crescent, 6% of the Moon is Illuminated
May 12
Waxing Crescent
May 18
First Quarter
May 25
Full
May 31
Last Quarter
Jun 8
New

Hourly Weather History & Observations

Time (EDT) Temp. Dew Point Humidity Pressure Visibility Wind Dir Wind Speed Gust Speed Precip Events Conditions
12:53 AM 63.0 °F 60.1 °F 90% 29.68 in 6.0 mi SSE 5.8 mph - N/A   Overcast
1:11 AM 60.8 °F 59.0 °F 94% 29.68 in 6.0 mi SSE 4.6 mph - N/A   Overcast
1:53 AM 61.0 °F 59.0 °F 93% 29.68 in 6.0 mi South 4.6 mph - N/A   Overcast
2:39 AM 60.8 °F 59.0 °F 94% 29.67 in 6.0 mi SSE 6.9 mph - N/A   Mostly Cloudy
2:53 AM 61.0 °F 59.0 °F 93% 29.65 in 6.0 mi SSE 4.6 mph - N/A   Overcast
3:00 AM 60.8 °F 59.0 °F 94% 29.65 in 6.0 mi South 4.6 mph - N/A   Mostly Cloudy
3:53 AM 60.1 °F 59.0 °F 96% 29.64 in 5.0 mi SSW 3.5 mph - N/A   Mostly Cloudy
4:04 AM 60.8 °F 59.0 °F 94% 29.66 in 5.0 mi SSW 5.8 mph - N/A   Overcast
4:53 AM 60.1 °F 59.0 °F 96% 29.65 in 5.0 mi South 4.6 mph - 0.00 in Rain Light Rain
5:02 AM 60.8 °F 59.0 °F 94% 29.64 in 4.0 mi Variable 3.5 mph - 0.00 in   Overcast
5:11 AM 60.8 °F 59.0 °F 94% 29.64 in 5.0 mi SSW 4.6 mph - 0.00 in   Overcast
5:22 AM 60.8 °F 59.0 °F 94% 29.66 in 5.0 mi SW 4.6 mph - 0.00 in   Overcast
5:31 AM 60.8 °F 59.0 °F 94% 29.66 in 5.0 mi WSW 3.5 mph - 0.00 in   Overcast
5:44 AM 60.8 °F 57.2 °F 88% 29.67 in 8.0 mi WSW 5.8 mph - 0.00 in   Overcast
5:53 AM 61.0 °F 57.9 °F 90% 29.66 in 10.0 mi West 4.6 mph - 0.00 in Rain Light Rain
6:08 AM 60.8 °F 50.0 °F 68% 29.65 in 10.0 mi NNW 8.1 mph - 0.00 in Rain Light Rain
6:48 AM 60.8 °F 51.8 °F 72% 29.67 in 10.0 mi WNW 3.5 mph - 0.01 in   Overcast
6:53 AM 60.1 °F 51.1 °F 72% 29.66 in 10.0 mi NNW 3.5 mph - 0.01 in   Overcast
7:33 AM 57.2 °F 53.6 °F 88% 29.68 in 5.0 mi West 4.6 mph - 0.01 in Rain Light Rain
7:41 AM 57.2 °F 53.6 °F 88% 29.67 in 6.0 mi NNW 3.5 mph - 0.02 in Rain Light Rain
7:53 AM 57.9 °F 53.1 °F 84% 29.68 in 10.0 mi WNW 3.5 mph - 0.03 in Rain Light Rain
8:14 AM 57.2 °F 51.8 °F 82% 29.68 in 10.0 mi WNW 4.6 mph - 0.00 in   Overcast
8:53 AM 59.0 °F 52.0 °F 78% 29.67 in 10.0 mi Calm Calm - 0.00 in   Mostly Cloudy
9:53 AM 61.0 °F 50.0 °F 67% 29.66 in 10.0 mi NW 4.6 mph - N/A   Overcast
10:53 AM 64.9 °F 51.1 °F 61% 29.65 in 10.0 mi Variable 4.6 mph - N/A   Mostly Cloudy
11:53 AM 66.9 °F 50.0 °F 54% 29.64 in 10.0 mi Variable 3.5 mph - N/A   Scattered Clouds
12:53 PM 66.9 °F 50.0 °F 54% 29.63 in 10.0 mi SW 8.1 mph 17.3 mph N/A   Overcast
1:53 PM 68.0 °F 44.1 °F 42% 29.62 in 10.0 mi WSW 8.1 mph 16.1 mph N/A   Mostly Cloudy
2:53 PM 70.0 °F 42.1 °F 36% 29.61 in 10.0 mi West 16.1 mph 21.9 mph N/A   Partly Cloudy
3:12 PM 64.4 °F 46.4 °F 52% 29.64 in 10.0 mi NW 20.7 mph 32.2 mph N/A   Mostly Cloudy
3:53 PM 64.0 °F 44.1 °F 48% 29.65 in 10.0 mi WNW 15.0 mph 27.6 mph N/A   Clear
4:53 PM 64.9 °F 41.0 °F 42% 29.66 in 10.0 mi WNW 10.4 mph 20.7 mph N/A   Scattered Clouds
5:53 PM 64.9 °F 37.0 °F 36% 29.68 in 10.0 mi WNW 8.1 mph 21.9 mph N/A   Clear
6:53 PM 62.1 °F 37.9 °F 41% 29.71 in 10.0 mi NW 8.1 mph - N/A   Clear
7:53 PM 59.0 °F 28.9 °F 32% 29.74 in 10.0 mi NW 10.4 mph - N/A   Partly Cloudy
8:53 PM 57.9 °F 28.9 °F 33% 29.78 in 10.0 mi West 4.6 mph - N/A   Clear
9:53 PM 55.9 °F 28.0 °F 34% 29.81 in 10.0 mi NW 11.5 mph 17.3 mph N/A   Clear
10:53 PM 54.0 °F 26.1 °F 34% 29.85 in 10.0 mi West 10.4 mph - N/A   Clear
11:53 PM 52.0 °F 28.0 °F 40% 29.87 in 10.0 mi Calm Calm - N/A   Clear